Weather in Kljuchi

Russia / Kamchatka Krai     56°19′20″N   160°50′41″E
temp.,
°C
wind,
m/s
gust,
m/s
humid.,
%
clouds,
%
prec.,
mm/h
press.,
hPa
HPBL,
m
28 february, sun
sun2800:00−14ese3696100 1.6 1017279
03:00−15se2496100 1.1 1015271
06:00−15se1496100 2.1 1014256
09:00−15se1396100 1.3 1013239
12:00−13nne0396100 2.8 1009262
15:00−13nw3497100 2.1 1005247
18:00−13wnw5595100 4.1 1000241
21:00−13wnw6791100 1.4 997429
1 march, mon
mon100:00−16w81191100 2.1 994554
03:00−18w81191100 0.9 993450
06:00−17w81192100 2.1 994442
09:00−16w71093100 1.1 995452
12:00−13wnw6990100 1.4 995756
15:00−12nw5689100 0.2 995606
18:00−13wnw4693100 0.4 995283
21:00−15wnw2294100 0.3 99842
2 march, tue
tue200:00−16wnw1289100 0.4 100023
03:00−17nw2286100 0.0 100232
06:00−18nw2291100 0.2 100560
09:00−19nw1292100 0.1 101071
12:00−16nnw3491100 0.3 1013231
15:00−13nw3581100 0.1 1015415
18:00−16wnw128298 0.1 101837
21:00−19sw22610 0.0 102224
3 march, wed
wed300:00−19s11560 0.0 102522
03:00−19s116395 0.0 102720
06:00−18se237197 0.0 102624
09:00−16ese4782100 0.0 1024195
12:00−14ese5796100 1.0 1019291
15:00−11ese81294100 1.3 1010564
18:00−9ese61094100 2.3 1000331
21:00−10ese3697100 0.8 991232
4 march, thu
thu400:00−4se81284100 1.3 980392
03:00−1sse6878100 0.2 972237
06:00−9wsw247583 0.9 977135
09:00−16w13195856 0.1 984872
12:00−15w14196028 0.2 9891454
15:00−15wsw1219560 0.0 9941563
18:00−17sw45621 0.0 999130
21:00−18ssw33590 0.0 100058